{"data":{"norad_id":62057,"intl_designator":"2024-217A","name":"STARLINK-11465 [DTC]","alt_names":[],"object_type":"PAYLOAD","status":"ACTIVE","operator":null,"country":"US","launch_date":"2024-11-24","launch_site_code":"AFWTR","launch_vehicle":null,"mission":null,"orbit_class":"UNKNOWN","rcs_meters":null,"size_class":null,"mass_kg":null,"dimensions":null,"purposes":["comms"],"wikipedia_slug":null,"has_3d_model":false,"image_url":null,"decayed_at":null,"tle_current":{"epoch":"2026-09-21T06:21:05.899104Z","epoch_age_seconds":115413,"freshness":"FRESH","line1":"1 62057U 24217A   26264.26465161  .00185101  00000+0  14950-2 0  9993","line2":"2 62057  53.1571 186.9349 0001018  82.5572 277.5562 15.69771555105891","mean_motion":15.69771555,"eccentricity":0.0001018,"inclination_deg":53.1571,"raan_deg":186.9349,"arg_perigee_deg":82.5572,"mean_anomaly_deg":277.5562,"bstar":0.001495,"rev_number":10589,"period_min":91.733092972245,"perigee_km":358.86471272917,"apogee_km":360.23650592643,"semimajor_km":6737.6876093278,"source":"CELESTRAK","updated_at":"2026-09-22T09:00:49.491394Z"}}}